Location: ?
(35.4996°N, 139.3166°E)
Time: 03:55:57
(UTC+00:00)

BREEZE-M DEB (TANK) - Visible Passes

Search period start: 25 July 2024 00:00
Search period end: 04 August 2024 00:00
Orbit: 308 x 14909 km, 49.5° (Epoch: 23 July)

Date Brightness Start Highest point End Pass type
(mag) Time Alt. Az. Time Alt. Az. Time Alt. Az.
25 Jul 5.0 10:23:41 10° WNW 10:40:47 40° N 10:45:30 10° ENE visible
27 Jul 4.4 13:00:01 10° WNW 13:04:09 27° W 13:04:09 27° W visible
28 Jul 2.8 11:45:21 10° NW 11:55:06 75° NNE 11:55:56 55° E visible
29 Jul 4.8 10:28:03 10° WNW 10:43:25 45° NNE 10:47:40 10° E visible
31 Jul 5.0 13:02:50 10° WNW 13:05:23 16° W 13:05:23 16° W visible
01 Aug 2.6 11:47:44 10° NW 11:56:34 71° SW 11:57:02 63° S visible
02 Aug 4.2 10:31:10 10° NW 10:45:16 55° NNE 10:48:39 15° E visible
